Location: College Park
(38.9810°N, 76.9370°W)
Time: 14:16:18

ISS - Pass Details

Date: 13 March 2018
Orbit: 403 x 406 km, 51.6° (Epoch: 18 March)

Event Time Altitude Azimuth Distance (km) Brightness Sun altitude
Exits shadow 05:48:07 - 343° (NNW) 1,571 -0.9 -19.0°
Reaches altitude 10° 05:48:45 10° 352° (N) 1,465 -1.0 -18.9°
Maximum altitude 05:49:53 11° 13° (NNE) 1,384 -0.8 -18.7°
Drops below altitude 10° 05:51:02 10° 33° (NNE) 1,464 -0.4 -18.5°
Sets 05:54:21 0° 70° (ENE) 2,321 1.7 -17.8°
